Wetbulb
47.93 42.85 39.75 41.63 44.97 44.04 41.41 41.88 40.17 43.19 45.26 44.84 43.50 43.62 45.07 47.52 47.05 46.86 47.84 49.07 49.86 48.04 50.06 51.54 55.58 60.04 61.81 62.40 61.63 62.25 62.33 62.66 62.13 61.68 60.43 60.11 59.75 59.69 59.54 60.11 60.09 59.65 60.45 59.96
43.20 39.41 43.09 45.36 45.47 43.23 42.75 40.18 39.87 42.16 45.03 44.28 43.34 42.40 44.86 46.70 47.74 48.85 49.30 49.74 49.25 50.85 50.50 51.77 51.91 56.43 60.04 61.54 61.86 62.13 62.46 63.04 62.53 62.55 62.21 61.53 61.09 60.73 60.31 60.19 60.04 59.82 59.43 59.69
39.65 40.07 44.57 43.47 40.89 41.03 41.04 40.37 39.35 39.64 42.04 43.42 41.36 37.85 40.76 45.48 47.80 49.49 50.55 51.29 51.42 50.53 51.18 50.15 51.90 52.47 58.27 60.63 61.52 61.81 62.36 62.93 63.02 63.22 62.67 61.64 61.22 60.32 59.32 59.34 59.28 59.67 59.43 59.34
39.76 43.43 41.53 41.89 40.23 41.53 37.28 42.14 41.50 39.88 38.55 34.37 41.18 31.40 38.13 41.70 43.90 46.29 47.86 49.24 50.61 51.48 52.14 51.70 51.03 50.14 55.91 59.50 62.03 62.37 62.51 62.74 63.08 63.29 62.08 61.14 60.02 58.81 59.81 59.99 60.20 60.03 59.67 59.07
35.97 38.71 39.06 38.04 39.66 41.68 38.56 41.95 40.96 39.98 38.52 37.83 36.61 34.11 35.99 38.55 38.87 42.51 44.04 45.39 47.69 50.68 52.01 52.25 52.91 53.38 51.06 57.34 60.65 62.13 62.49 62.55 62.96 62.90 62.54 61.58 60.66 60.92 61.08 60.67 59.86 59.68 59.44 59.44
38.84 41.70 41.61 40.47 42.19 41.89 42.71 38.77 38.91 37.96 36.25 30.72 34.76 33.88 32.91 36.67 39.91 42.40 44.98 47.18 49.14 48.07 49.21 51.96 53.49 53.60 51.83 51.70 58.65 61.25 61.62 61.73 62.50 62.82 62.35 61.71 61.14 61.00 60.45 59.99 59.44 59.41 59.48 59.24
36.19 37.50 39.19 41.38 37.04 39.97 39.38 35.52 29.27 28.14 28.45 28.46 34.06 32.10 34.96 40.10 42.56 42.85 45.01 46.50 47.48 46.48 47.17 48.86 49.62 49.02 50.22 49.95 52.47 59.67 60.93 60.90 61.89 62.11 62.29 62.08 61.79 61.62 60.79 60.36 59.87 59.20 58.90 58.97
29.22 24.35 36.83 39.68 38.14 35.40 35.63 35.29 29.19 22.36 23.88 25.09 31.05 28.06 33.57 42.36 44.88 45.70 46.40 47.32 48.19 48.55 48.95 47.68 48.86 48.81 49.08 50.04 50.59 56.59 59.78 60.65 61.72 61.94 61.82 62.39 62.39 62.07 61.71 61.32 60.96 60.36 59.82 59.70
27.61 28.09 36.77 38.89 39.66 39.86 34.51 32.54 37.37 30.91 29.37 24.67 27.97 34.69 40.19 42.36 43.74 43.91 43.52 44.47 44.96 46.77 47.18 47.71 49.00 49.41 49.86 50.19 50.64 54.14 58.22 60.07 61.20 61.89 62.28 62.15 62.39 62.24 61.88 61.92 61.69 61.19 61.08 60.80
31.46 25.97 34.77 36.55 39.02 39.72 37.70 38.92 29.22 32.29 19.86 21.60 25.91 27.21 30.32 36.05 38.61 40.80 41.23 42.16 44.16 45.82 45.87 47.23 47.55 48.24 49.29 49.54 50.83 52.01 54.44 58.68 60.40 61.18 62.05 62.29 62.32 62.43 62.62 62.42 61.39 61.21 61.56 61.47
34.28 30.64 29.98 33.76 32.83 32.89 33.71 33.36 34.04 32.94 31.23 25.98 23.47 25.93 37.66 37.99 38.57 39.12 39.62 41.89 44.07 45.91 45.84 45.16 45.27 45.62 47.14 48.28 49.14 50.56 51.69 52.30 56.03 59.78 60.94 61.40 61.99 62.32 62.42 62.20 61.97 61.79 61.73 61.60
35.45 32.65 24.93 28.75 34.51 36.35 37.43 34.68 34.30 28.31 23.46 26.78 27.20 28.00 38.74 39.02 40.31 40.73 40.39 42.53 43.93 44.92 45.12 44.57 43.90 44.94 45.39 45.50 46.07 47.86 49.46 50.41 52.20 54.74 59.00 60.06 60.87 61.55 61.73 61.68 62.01 62.18 61.57 61.76
36.19 29.57 16.66 22.36 29.86 33.05 32.02 33.47 34.84 33.83 30.92 26.87 23.30 25.83 37.93 38.16 38.81 41.31 41.85 42.35 43.02 43.64 45.09 45.05 44.48 44.26 44.11 44.58 45.20 46.07 47.76 48.93 50.16 51.48 54.21 57.14 59.13 59.72 60.45 61.43 61.85 61.94 61.51 61.49
40.05 31.76 26.98 21.99 24.78 30.40 29.53 32.63 34.31 33.15 27.57 27.82 28.90 30.99 36.22 38.50 38.26 40.67 41.38 42.74 43.52 44.21 44.99 45.16 44.95 44.74 45.68 44.93 44.88 44.62 45.14 46.34 47.89 48.70 50.46 52.75 55.62 58.25 59.31 60.47 61.27 61.21 61.47 60.79
36.38 24.51 29.80 29.73 31.28 30.80 30.14 30.45 31.74 31.23 32.27 27.57 30.59 30.71 35.38 37.82 37.76 40.62 42.70 42.88 42.61 42.54 42.90 42.42 42.79 44.64 46.20 46.63 46.60 44.75 44.51 45.04 45.52 46.43 48.08 50.71 53.44 55.68 57.36 58.02 59.01 60.18 60.12 60.26
36.26 27.78 29.66 23.86 30.64 31.05 29.15 31.03 31.31 31.88 32.22 31.73 31.94 31.76 38.82 39.94 39.17 37.82 38.60 38.07 36.24 36.72 37.37 37.95 39.30 40.27 39.90 40.37 41.00 43.36 47.05 46.62 45.77 44.71 46.44 49.13 50.66 52.18 52.85 54.48 55.68 56.68 57.51 58.45
33.02 28.86 25.02 15.07 27.13 26.63 19.00 26.83 29.89 31.20 32.29 31.69 27.63 33.45 37.74 34.09 34.54 33.74 31.75 32.65 33.36 34.00 34.94 35.32 35.89 37.50 37.40 37.68 39.57 40.70 40.48 44.28 46.55 44.44 43.79 45.14 47.15 47.86 49.98 51.13 50.97 50.93 54.16 56.00
28.59 28.13 26.10 15.44 17.67 14.47 26.32 31.49 31.44 30.60 32.64 34.06 33.88 33.31 28.93 28.61 31.47 31.66 30.37 29.16 30.31 31.49 32.16 32.92 33.94 34.29 34.73 36.54 37.28 37.59 37.35 38.25 41.60 43.98 42.50 40.80 41.28 43.57 44.28 43.31 45.32 48.62 49.83 52.31
34.65 29.09 23.69 21.35 10.30 18.77 24.04 28.77 27.38 26.38 25.46 27.12 27.26 26.88 25.91 26.22 31.37 29.99 28.93 28.83 29.05 29.65 30.15 31.30 32.75 32.15 32.75 33.85 34.93 33.66 34.04 35.59 37.48 40.00 40.36 40.19 39.56 40.18 39.84 41.28 45.00 47.56 47.34 48.79
33.20 32.86 23.70 3.97 4.07 4.58 22.45 28.40 31.28 31.39 20.69 23.89 23.70 22.13 21.53 24.24 23.83 27.45 25.69 26.44 27.09 27.73 27.88 28.77 29.39 29.46 29.98 31.62 31.28 30.35 31.18 32.03 33.83 36.09 36.87 38.82 38.06 36.77 38.34 40.99 43.05 45.13 46.53 47.40
16.18 13.77 18.10 3.33 3.64 14.29 25.92 29.79 33.31 17.61 20.57 20.51 20.02 19.70 18.79 17.56 20.48 22.25 23.77 23.99 24.51 24.46 25.22 26.61 25.88 25.88 26.52 29.22 28.00 27.87 28.66 28.94 31.54 32.32 33.25 34.76 36.67 36.43 38.01 39.93 40.91 42.75 43.27 40.98
18.99 14.36 9.22 6.86 4.69 10.99 24.52 28.10 26.78 19.35 18.86 18.65 17.28 17.34 16.08 16.97 17.90 18.80 19.34 19.81 20.55 21.15 21.55 22.92 21.90 22.20 25.55 26.02 25.95 25.98 25.85 28.34 29.38 29.57 30.25 32.26 34.74 35.96 35.89 36.39 39.28 37.92 38.77 39.17
19.29 23.53 19.22 21.24 19.69 21.02 19.29 17.16 17.17 17.64 16.84 16.08 15.27 15.62 14.69 13.99 14.48 15.35 15.39 17.27 18.77 18.48 19.07 20.01 19.64 20.37 20.64 23.00 23.24 22.99 24.53 27.12 27.52 27.31 28.77 30.85 33.54 34.20 34.53 35.25 36.87 37.29 38.06 40.14
24.65 25.23 24.54 23.38 20.52 16.91 15.69 15.75 15.89 16.74 14.90 15.14 14.89 13.97 13.62 11.93 13.40 14.31 15.67 15.50 15.33 15.89 16.18 17.45 16.47 15.62 15.39 16.89 19.63 20.31 21.72 23.85 22.68 22.90 26.78 30.63 31.76 32.96 34.13 34.75 35.77 36.86 37.65 38.49
20.35 22.70 19.08 18.49 17.67 15.40 14.47 13.88 13.78 13.67 13.98 13.45 13.55 12.98 12.18 11.52 12.28 12.83 12.30 12.32 13.32 13.24 14.03 14.40 13.07 12.09 11.88 13.67 15.24 16.43 18.91 19.56 17.80 19.92 24.30 30.36 31.91 32.42 32.75 33.69 34.39 35.21 37.31 38.71
10.10 14.06 19.49 17.92 13.01 12.98 14.28 13.02 11.22 10.22 9.63 10.56 9.91 9.56 10.71 11.30 10.33 10.36 9.99 10.83 11.97 11.15 11.98 11.43 10.75 10.35 10.26 10.45 10.86 13.25 16.53 15.92 15.25 17.47 21.86 29.38 31.46 32.45 32.67 32.84 33.37 36.29 36.93 37.51
MSLP
1019.82 1019.98 1019.12 1019.23 1019.72 1020.21 1020.17 1020.09 1019.73 1019.26 1019.34 1019.26 1018.63 1017.54 1016.99 1016.39 1016.05 1015.55 1015.11 1014.48 1014.12 1013.65 1012.84 1012.16 1012.01 1012.10 1012.40 1012.79 1013.64 1014.03 1014.52 1015.23 1015.68 1016.10 1016.46 1017.05 1017.06 1017.54 1017.91 1018.05 1018.36 1018.77 1019.18 1019.59
1019.83 1019.02 1019.24 1019.45 1019.68 1020.23 1020.33 1020.25 1019.54 1019.41 1019.50 1019.63 1019.01 1017.97 1016.93 1016.44 1015.48 1014.85 1014.25 1013.60 1013.40 1012.66 1012.04 1011.47 1011.16 1011.36 1011.71 1011.73 1012.22 1012.99 1013.28 1013.87 1014.66 1015.20 1015.41 1015.79 1016.38 1016.59 1016.90 1017.36 1017.65 1017.87 1018.26 1018.63
1019.04 1018.60 1019.26 1019.29 1019.59 1019.96 1019.95 1019.92 1019.67 1019.95 1019.88 1019.62 1019.58 1018.39 1016.67 1015.37 1014.46 1013.86 1012.95 1012.89 1012.15 1011.83 1011.23 1010.78 1010.47 1010.14 1010.37 1010.91 1011.20 1011.78 1011.91 1012.07 1012.78 1013.70 1014.86 1015.45 1016.06 1016.48 1016.50 1016.48 1016.79 1016.80 1017.17 1017.55
1019.11 1018.40 1018.95 1019.05 1019.19 1019.54 1019.71 1019.52 1019.81 1020.00 1020.50 1019.92 1019.76 1018.09 1016.17 1015.57 1014.32 1013.23 1012.81 1012.26 1011.46 1010.96 1010.53 1010.09 1009.58 1009.37 1009.50 1009.56 1009.91 1010.04 1010.72 1011.10 1011.67 1012.63 1013.68 1014.00 1014.23 1014.62 1014.40 1014.79 1015.39 1015.84 1016.17 1016.59
1017.67 1017.94 1018.24 1018.64 1018.15 1019.11 1019.13 1019.36 1019.70 1019.85 1019.93 1019.97 1019.55 1019.03 1015.39 1014.96 1013.76 1012.81 1012.42 1011.55 1010.55 1009.81 1009.38 1008.93 1008.62 1008.25 1008.10 1008.65 1009.03 1009.27 1009.64 1010.16 1010.61 1011.48 1012.15 1013.06 1013.48 1013.50 1013.99 1014.35 1014.50 1014.80 1015.16 1015.43
1017.51 1017.42 1017.66 1017.51 1017.91 1018.59 1018.97 1019.27 1019.50 1019.72 1020.07 1019.34 1018.49 1018.61 1015.93 1014.69 1013.12 1012.12 1011.41 1010.58 1009.70 1009.40 1008.83 1008.08 1007.42 1007.48 1007.52 1007.54 1008.14 1008.57 1008.88 1009.11 1009.63 1010.36 1011.16 1011.62 1012.02 1012.57 1013.11 1013.17 1013.36 1013.55 1013.85 1014.24
1017.76 1017.38 1017.02 1017.01 1017.65 1018.25 1018.92 1019.61 1019.97 1019.99 1019.90 1018.41 1017.19 1017.76 1015.43 1013.49 1011.79 1011.32 1010.28 1009.93 1009.30 1008.91 1008.42 1007.76 1007.27 1007.28 1006.91 1007.17 1007.45 1007.81 1008.15 1008.51 1008.99 1009.23 1009.83 1010.25 1010.67 1011.31 1011.57 1011.87 1012.13 1012.54 1012.87 1013.05
1017.65 1017.30 1016.72 1016.36 1016.65 1017.24 1018.24 1018.99 1019.17 1019.17 1019.05 1018.49 1017.54 1016.43 1013.76 1012.35 1011.01 1010.51 1010.08 1009.29 1008.97 1008.56 1007.82 1007.44 1007.00 1006.86 1006.50 1006.72 1006.89 1007.07 1007.29 1007.45 1007.73 1007.93 1008.15 1008.80 1009.31 1009.72 1009.89 1010.31 1010.56 1010.88 1011.29 1011.45
1016.60 1016.47 1015.76 1015.48 1015.97 1016.84 1017.46 1018.25 1018.23 1019.12 1018.94 1018.96 1017.22 1015.54 1013.29 1011.64 1010.67 1010.05 1009.76 1009.38 1008.92 1008.20 1007.65 1007.17 1006.89 1006.35 1006.11 1006.45 1006.75 1006.93 1006.88 1006.92 1007.09 1007.19 1007.25 1007.47 1008.05 1008.46 1008.54 1008.72 1009.20 1009.66 1010.02 1010.36
1015.62 1015.96 1015.28 1015.16 1015.65 1015.85 1016.12 1017.09 1018.40 1019.09 1018.94 1018.15 1016.45 1014.85 1012.58 1010.85 1010.45 1010.09 1009.91 1009.90 1009.41 1008.41 1007.76 1007.23 1007.03 1006.48 1006.49 1006.66 1006.77 1006.94 1006.99 1006.85 1006.72 1006.71 1006.79 1006.69 1006.78 1007.14 1007.51 1007.81 1007.99 1008.42 1008.66 1009.10
1015.34 1015.58 1015.55 1015.21 1015.13 1015.45 1016.53 1016.87 1017.61 1017.90 1018.32 1017.59 1015.89 1013.92 1011.23 1010.85 1010.77 1010.42 1010.43 1010.45 1009.74 1008.90 1008.28 1007.59 1007.08 1006.80 1006.92 1007.06 1006.81 1006.68 1006.69 1006.66 1006.43 1006.20 1006.20 1006.20 1006.16 1006.19 1006.56 1006.73 1006.91 1007.11 1007.62 1008.10
1015.02 1015.60 1016.25 1015.69 1015.04 1014.99 1015.35 1015.65 1016.70 1017.60 1017.50 1017.27 1016.13 1013.52 1011.21 1010.50 1010.62 1010.60 1010.65 1010.70 1010.19 1009.96 1009.40 1008.92 1008.17 1007.51 1007.33 1007.52 1007.42 1006.83 1006.40 1006.21 1005.83 1005.72 1005.65 1005.53 1005.40 1005.31 1005.38 1005.53 1005.83 1006.24 1006.54 1006.90
1014.25 1015.15 1016.38 1016.46 1015.92 1015.06 1015.14 1015.34 1015.77 1016.47 1016.89 1016.40 1015.97 1013.16 1010.49 1010.99 1011.14 1011.20 1011.44 1011.01 1010.52 1010.10 1009.63 1009.39 1008.68 1008.02 1007.66 1007.54 1007.07 1006.51 1006.17 1005.86 1005.61 1005.49 1005.32 1004.99 1004.69 1004.63 1004.60 1004.70 1004.76 1005.03 1005.35 1005.75
1013.90 1014.83 1015.14 1015.24 1015.56 1014.84 1015.27 1015.24 1015.46 1016.00 1016.32 1014.71 1015.10 1012.88 1010.44 1011.61 1012.03 1011.95 1011.49 1010.78 1010.28 1009.89 1009.81 1009.35 1008.75 1008.40 1007.74 1007.44 1007.02 1006.60 1006.06 1005.56 1005.31 1005.22 1005.10 1004.94 1004.64 1004.11 1003.63 1003.65 1003.89 1004.07 1004.17 1004.41
1013.81 1014.81 1015.70 1016.13 1015.69 1015.52 1015.35 1015.15 1015.23 1015.45 1014.83 1015.50 1013.50 1013.78 1010.70 1012.14 1012.37 1012.09 1011.98 1011.60 1011.14 1011.18 1011.00 1011.26 1010.65 1010.05 1009.30 1008.56 1007.72 1006.91 1006.01 1005.30 1004.79 1004.63 1004.37 1004.14 1003.73 1003.62 1003.29 1003.19 1003.02 1003.10 1003.26 1003.22
1014.22 1015.44 1016.31 1016.98 1016.52 1016.09 1015.59 1014.84 1015.08 1015.06 1015.18 1015.05 1014.66 1013.57 1012.11 1012.33 1012.48 1012.63 1012.79 1013.20 1013.52 1013.22 1012.99 1012.37 1011.76 1011.26 1010.87 1010.45 1009.56 1008.15 1006.79 1005.79 1004.76 1004.27 1003.94 1003.50 1003.40 1003.13 1002.88 1002.61 1002.47 1002.49 1002.50 1002.59
1014.19 1015.79 1017.42 1018.29 1017.50 1017.09 1016.25 1014.61 1014.43 1014.37 1014.54 1014.73 1014.91 1013.22 1012.62 1013.87 1014.16 1014.57 1014.75 1014.91 1014.84 1014.46 1014.02 1013.52 1013.27 1012.83 1012.19 1011.50 1010.45 1009.09 1008.36 1006.88 1005.14 1004.50 1003.85 1003.31 1002.80 1002.61 1002.27 1001.99 1001.90 1001.74 1001.82 1001.88
1014.57 1016.37 1017.86 1019.13 1018.94 1018.04 1015.08 1013.93 1013.69 1014.00 1014.34 1014.77 1014.95 1015.23 1016.35 1016.76 1015.97 1016.41 1016.44 1016.30 1016.10 1015.86 1015.25 1014.69 1013.94 1012.94 1012.76 1012.02 1010.84 1009.97 1008.99 1007.72 1006.11 1004.84 1004.05 1002.93 1002.24 1002.08 1001.69 1001.54 1001.43 1001.32 1001.21 1001.00
1014.67 1016.67 1018.66 1019.88 1020.18 1018.03 1015.86 1014.33 1013.80 1014.13 1015.65 1017.19 1017.40 1017.64 1018.13 1018.08 1016.53 1016.97 1016.93 1017.67 1017.64 1017.15 1016.56 1015.95 1015.33 1014.85 1013.44 1012.43 1011.69 1010.68 1009.43 1008.40 1007.10 1005.70 1004.40 1003.41 1002.58 1001.74 1001.29 1001.31 1000.98 1000.66 1000.70 1000.50
1015.87 1016.72 1018.72 1020.83 1021.03 1019.04 1016.26 1014.53 1014.27 1014.37 1017.16 1019.05 1019.59 1019.88 1019.80 1019.43 1019.08 1018.64 1017.95 1017.82 1018.01 1018.23 1017.73 1016.59 1015.92 1015.27 1014.62 1013.55 1012.85 1011.83 1010.68 1009.41 1007.97 1006.78 1005.59 1004.32 1003.16 1002.03 1001.49 1000.96 1000.38 1000.08 1000.03 999.56
1017.61 1018.50 1019.77 1021.30 1021.20 1019.22 1016.83 1015.86 1015.35 1017.52 1019.80 1020.95 1021.59 1021.88 1021.82 1021.90 1022.09 1021.36 1020.55 1019.27 1019.37 1018.76 1017.87 1017.31 1016.54 1015.78 1015.04 1013.86 1013.01 1011.80 1010.89 1010.06 1008.99 1007.59 1006.18 1004.57 1003.02 1001.79 1000.82 1000.15 999.82 999.66 999.54 999.35
1016.84 1018.50 1020.12 1021.05 1021.49 1020.01 1018.06 1017.70 1018.93 1020.90 1021.73 1022.49 1022.98 1023.21 1023.12 1022.85 1022.51 1022.43 1021.87 1020.99 1019.71 1018.68 1018.06 1017.70 1016.49 1015.66 1015.20 1014.78 1013.70 1012.31 1011.18 1010.16 1009.07 1007.80 1006.24 1004.44 1002.88 1001.50 1000.48 999.92 999.53 999.27 999.10 999.19
1016.12 1015.91 1017.49 1019.10 1019.70 1019.72 1020.04 1020.73 1022.15 1022.81 1023.17 1023.87 1024.23 1024.29 1024.21 1023.64 1022.91 1022.63 1022.26 1021.81 1021.07 1020.20 1019.07 1018.57 1017.82 1016.49 1015.99 1015.33 1014.60 1012.91 1011.72 1010.54 1009.01 1007.64 1006.03 1004.29 1002.65 1001.46 1000.35 999.66 999.20 999.18 998.87 998.59
1015.92 1015.93 1016.85 1018.60 1020.16 1021.04 1021.95 1022.92 1023.61 1024.08 1024.61 1025.04 1025.30 1025.19 1024.86 1024.31 1023.76 1022.92 1022.41 1022.17 1021.80 1021.21 1020.10 1019.11 1018.28 1017.35 1016.24 1015.62 1014.68 1013.63 1012.23 1011.03 1009.77 1007.85 1005.80 1003.94 1002.43 1001.22 1000.22 999.43 998.94 998.70 998.37 998.00
1017.29 1017.19 1018.30 1020.45 1021.60 1022.61 1023.53 1024.15 1024.86 1025.34 1025.67 1025.77 1025.82 1025.73 1025.38 1024.91 1024.25 1023.82 1023.21 1022.73 1022.16 1021.62 1020.84 1020.10 1019.20 1018.20 1017.15 1016.10 1014.91 1013.65 1012.32 1011.27 1009.83 1008.07 1006.02 1003.69 1002.11 1001.09 1000.04 999.30 998.83 998.40 997.93 997.75
1019.35 1019.58 1020.15 1021.41 1022.42 1023.13 1023.82 1024.84 1025.81 1025.98 1026.24 1026.37 1026.43 1026.20 1026.08 1025.74 1025.12 1024.58 1023.95 1023.45 1022.75 1021.96 1021.17 1020.40 1019.70 1018.76 1017.68 1016.63 1015.45 1013.94 1012.49 1011.49 1009.98 1008.07 1006.03 1003.84 1002.06 1000.76 999.84 999.03 998.16 997.89 997.50 997.37
Wind_Speed
7 4 15 13 10 12 2 3 8 6 6 14 13 18 13 11 8 11 13 14 15 13 11 10 11 16 17 18 16 18 15 15 12 12 11 11 13 10 8 9 11 11 11 12
4 14 8 4 8 10 11 11 14 9 7 6 10 18 17 14 14 13 17 17 15 16 14 13 10 11 15 20 20 19 19 18 15 12 12 11 11 10 9 8 10 13 13 14
11 5 11 7 9 8 12 16 12 7 4 10 9 16 16 15 16 17 21 20 18 18 18 13 15 13 17 19 20 20 22 22 20 20 10 8 7 6 8 10 11 13 15 16
9 13 7 11 14 11 15 7 7 9 6 6 8 8 16 8 17 20 17 18 21 21 17 13 13 11 13 19 20 22 21 21 20 20 15 18 15 14 14 14 12 13 16 17
13 11 13 12 14 7 10 7 10 9 9 8 7 7 10 3 10 15 10 10 14 19 22 21 18 17 11 13 18 19 20 20 20 19 20 15 16 13 10 11 15 16 14 17
16 4 9 12 14 12 5 1 4 2 1 11 16 11 12 10 15 12 9 14 18 13 13 17 19 14 9 9 14 17 19 20 20 20 21 21 21 18 13 13 13 12 12 13
6 12 3 3 5 6 5 5 4 5 6 5 9 7 16 16 20 12 18 15 13 10 9 12 11 9 8 9 9 13 17 19 18 20 21 23 22 21 20 17 14 15 13 13
12 5 16 7 10 7 8 11 7 8 6 4 2 7 10 18 18 18 20 22 17 17 14 10 9 9 8 9 9 10 15 18 20 21 22 21 23 16 17 18 15 14 14 15
8 9 5 9 7 11 5 8 12 12 10 4 5 6 15 14 16 10 9 9 10 11 11 8 9 7 6 6 7 8 12 16 18 20 19 21 20 22 19 21 18 14 16 14
4 2 8 9 6 10 16 6 3 4 5 12 7 7 10 9 4 7 8 7 10 8 9 7 6 6 5 5 5 4 7 12 16 17 17 17 20 20 21 18 19 19 18 18
4 3 4 9 9 11 4 11 6 3 5 4 6 7 10 9 5 6 9 10 12 9 7 6 4 4 3 4 4 6 7 7 9 12 14 16 16 18 18 19 18 19 18 17
6 4 4 6 4 6 17 18 15 9 8 4 3 12 3 11 14 14 8 12 10 12 12 12 9 8 6 6 6 7 6 8 9 9 10 14 14 15 17 19 19 18 18 18
10 5 3 8 7 3 6 6 8 5 4 17 9 14 2 9 8 12 11 9 10 10 11 9 9 8 7 8 8 7 7 8 8 7 9 11 14 15 16 18 18 19 18 18
16 5 9 10 6 6 5 6 6 8 8 17 16 25 27 15 7 9 13 15 19 17 14 10 10 8 10 8 8 8 8 8 8 7 9 11 13 15 16 16 16 17 17 18
12 7 6 1 6 2 4 6 10 14 17 10 18 15 25 13 8 12 16 18 19 17 16 17 18 17 16 17 16 10 8 9 9 8 9 12 13 11 12 13 14 15 16 18
3 3 3 1 3 5 9 11 7 6 5 10 9 19 18 15 10 9 9 10 11 14 16 17 17 17 19 19 19 20 19 16 11 9 11 11 9 9 10 11 12 13 14 15
8 7 4 5 3 1 9 7 13 12 8 8 11 23 21 11 11 12 11 12 13 15 16 18 18 17 18 20 19 19 22 22 19 15 9 9 10 10 12 12 10 12 14 14
7 6 3 4 5 4 6 3 4 10 11 8 14 9 12 9 10 6 12 15 15 16 18 18 18 20 19 19 20 20 20 21 21 18 15 10 9 11 10 8 11 13 10 14
7 5 3 5 5 5 6 7 4 6 3 8 6 10 11 14 10 6 15 15 15 17 17 17 16 18 21 20 19 21 20 19 20 18 17 16 11 11 8 9 13 13 10 12
5 4 5 4 6 9 7 2 1 3 5 9 10 11 14 13 4 4 25 24 18 16 17 18 19 19 17 18 19 19 18 19 19 19 21 20 15 10 10 12 13 11 12 14
3 2 8 3 3 8 7 8 6 4 4 7 8 8 10 6 4 15 19 21 18 20 21 20 18 17 19 17 20 21 20 19 19 20 21 20 18 15 12 12 9 10 11 8
9 8 5 4 3 9 5 0 4 3 7 6 7 9 11 13 15 14 13 17 21 20 20 19 20 19 17 18 18 20 21 22 22 22 22 20 19 14 9 9 10 7 8 10
3 8 8 10 7 5 8 13 9 7 3 4 7 9 11 16 16 15 14 14 15 20 20 17 17 21 18 16 16 20 20 21 22 21 23 19 18 14 11 11 10 8 9 10
3 0 4 6 3 8 11 10 8 5 6 6 7 11 13 14 17 17 15 15 15 15 18 17 19 19 20 18 17 17 19 19 19 21 21 19 16 15 12 8 7 9 8 9
3 3 6 6 8 11 8 9 7 5 6 8 9 10 12 15 16 17 17 16 15 16 15 16 17 17 19 19 19 18 17 18 18 18 18 17 14 15 13 10 7 8 9 8
3 3 4 4 6 1 5 6 8 7 8 9 11 12 12 12 15 17 14 14 15 16 16 15 16 17 18 18 18 18 17 18 18 17 14 13 12 11 11 9 8 10 13 11
Wind_Direction
184 178 215 210 207 244 317 220 250 257 289 261 263 279 294 278 255 257 260 262 260 247 242 228 221 208 200 195 194 196 192 198 190 194 189 198 207 201 203 201 197 192 195 198
180 225 211 154 175 207 227 235 254 275 268 335 324 296 290 278 265 251 260 263 260 252 241 238 229 215 204 197 197 201 200 196 197 200 205 204 206 209 204 202 201 199 195 197
213 227 184 208 223 213 231 234 242 241 323 293 302 292 278 267 254 259 259 262 257 251 247 239 234 218 205 207 198 199 203 199 195 201 199 203 200 211 202 202 206 206 201 200
217 234 213 209 230 206 243 199 208 221 221 262 167 286 273 277 276 274 274 257 259 259 252 243 228 225 209 211 204 203 207 201 199 192 197 201 204 207 213 208 208 209 204 203
217 171 196 216 226 168 251 186 227 231 246 255 232 255 283 219 271 268 275 264 255 250 245 242 237 229 211 206 213 207 207 206 199 194 199 203 212 219 215 212 209 207 203 204
226 156 174 200 222 201 217 181 239 195 190 237 236 209 261 255 251 262 258 260 266 268 254 241 237 235 223 201 205 213 209 207 200 197 200 204 210 212 214 212 209 207 205 202
218 233 276 178 174 184 167 149 251 233 210 255 233 200 243 267 254 258 273 266 268 269 258 249 242 233 222 216 205 208 207 208 206 203 202 208 211 211 216 215 211 205 208 207
212 226 200 190 194 173 188 193 218 240 219 269 16 208 246 229 271 264 260 269 268 276 272 247 239 235 231 234 216 201 206 212 209 208 208 209 213 213 215 215 213 213 211 211
183 238 196 183 173 148 206 195 233 258 263 288 234 262 289 268 264 254 281 288 274 281 276 277 270 251 252 248 237 215 218 218 219 218 215 215 214 216 219 219 217 215 215 217
179 203 206 202 142 211 207 147 221 197 242 249 233 224 233 250 275 311 301 326 303 303 304 321 338 344 319 292 295 273 231 229 228 226 225 224 220 219 222 224 221 219 220 217
170 124 276 134 199 185 196 223 219 203 191 254 247 244 225 252 309 320 330 327 317 319 343 341 329 356 347 321 313 295 276 252 239 227 231 231 228 225 225 227 225 222 221 217
172 128 205 230 220 186 207 214 211 222 234 241 303 270 236 288 295 315 333 338 357 350 338 331 330 339 335 304 286 267 266 252 247 241 229 230 232 229 227 227 226 224 224 220
168 213 77 341 327 244 209 194 193 211 243 246 247 260 135 281 320 323 337 343 319 307 313 314 317 309 286 277 267 263 265 257 258 255 247 241 232 229 230 230 227 224 223 223
164 171 200 213 205 171 197 182 203 203 228 248 239 263 276 277 309 321 324 313 305 312 310 287 287 291 298 285 285 279 276 267 264 247 250 250 243 236 230 229 230 226 221 220
166 191 194 189 303 113 199 226 222 216 240 233 264 258 270 289 292 291 285 289 294 323 359 6 1 354 339 334 329 304 275 269 262 249 242 245 249 244 239 235 228 226 224 222
177 164 122 29 196 258 275 256 206 227 241 254 273 269 275 281 269 280 283 18 34 357 355 355 355 352 350 341 333 328 320 301 282 254 249 244 244 238 232 229 225 227 224 224
147 125 113 244 242 80 299 219 225 238 213 226 243 257 281 359 358 22 39 33 8 356 349 346 341 338 337 331 329 329 327 323 312 288 265 243 239 238 236 235 229 221 224 223
126 109 126 191 58 241 240 71 205 212 241 260 263 320 31 359 304 98 46 21 357 348 343 340 335 334 333 327 326 327 327 323 320 313 282 261 243 244 244 232 233 236 229 223
128 121 130 160 202 304 308 267 210 187 222 27 344 0 5 342 303 203 31 10 344 338 333 326 327 326 321 324 327 326 325 324 323 318 304 288 273 259 245 241 242 241 230 231
94 113 143 98 152 209 220 195 30 208 232 25 21 5 356 350 19 323 339 338 332 330 326 323 324 321 322 321 326 321 321 322 320 325 318 309 290 261 257 254 250 245 235 236
100 35 188 182 213 285 255 321 345 106 284 37 29 1 345 341 302 313 313 314 319 320 321 326 324 319 322 327 325 321 321 319 317 314 310 306 299 281 265 261 247 237 238 237
155 150 179 83 75 276 21 281 201 58 60 23 10 352 327 312 310 310 311 310 313 319 326 327 320 323 325 326 323 318 317 319 317 315 310 305 300 291 277 253 258 238 219 230
177 179 175 177 200 60 33 98 90 62 85 16 343 334 321 312 316 321 318 317 323 319 320 321 318 317 319 321 320 313 316 314 317 313 311 306 304 297 283 272 268 254 236 233
156 263 143 125 131 126 110 88 58 48 51 5 344 324 324 317 322 322 324 328 323 323 319 320 324 319 318 320 315 311 314 315 316 308 308 310 310 306 296 280 262 254 243 236
199 97 140 80 85 107 106 60 53 40 20 356 341 337 331 327 325 329 326 323 323 322 319 322 320 320 317 315 317 315 318 321 314 308 304 307 312 310 304 288 266 258 257 245
345 151 154 182 139 144 110 45 47 31 14 2 347 339 338 332 329 331 323 323 324 324 320 322 320 319 319 321 316 317 324 321 314 308 304 304 306 306 302 294 288 255 254 258